This is the latest recevied weather packets stored in our database for station/object AC5CM. If no packets are shown the sender has not sent any weather packets the latest 10 day(s).
| Time | Temp. | Humidity | Pressure | Rain* | Wind** | Luminosity | Snow |
|---|---|---|---|---|---|---|---|
| 1777867206 | 15.56° C | 75% | 1019.5 hPa | 0 mm | - | - | - |
| 1777866903 | 15.56° C | 75% | 1019.3 hPa | 0 mm | - | - | - |
| 1777866599 | 15.56° C | 75% | 1019.5 hPa | 0 mm | - | - | - |
| 1777866297 | 16.11° C | 74% | 1019.8 hPa | 0 mm | - | - | - |
| 1777865994 | 16.11° C | 72% | 1019.7 hPa | 0 mm | - | - | - |
| 1777865692 | 16.67° C | 70% | 1019.6 hPa | 0 mm | - | - | - |
| 1777865389 | 17.22° C | 69% | 1019.6 hPa | 0 mm | - | - | - |
| 1777865085 | 17.22° C | 69% | 1019.7 hPa | 0 mm | - | - | - |
| 1777864782 | 17.78° C | 68% | 1019.5 hPa | 0 mm | - | - | - |
| 1777864479 | 17.78° C | 68% | 1019.5 hPa | 0 mm | - | - | - |
| 1777864176 | 17.78° C | 67% | 1019.4 hPa | 0 mm | - | - | - |
| 1777863873 | 17.78° C | 67% | 1019.4 hPa | 0 mm | - | - | - |
| 1777863569 | 18.33° C | 66% | 1019.5 hPa | 0 mm | - | - | - |
| 1777863266 | 18.33° C | 66% | 1019.5 hPa | 0 mm | - | - | - |
| 1777862963 | 18.33° C | 65% | 1019.4 hPa | 0 mm | - | - | - |
| 1777862660 | 18.89° C | 64% | 1019.3 hPa | 0 mm | - | - | - |
| 1777862357 | 18.89° C | 63% | 1019.2 hPa | 0 mm | - | - | - |
| 1777862053 | 18.89° C | 63% | 1019.2 hPa | 0 mm | - | - | - |
| 1777861749 | 18.89° C | 63% | 1019.4 hPa | 0 mm | - | - | - |
| 1777861446 | 19.44° C | 62% | 1019.2 hPa | 0 mm | - | - | - |
| 1777861142 | 19.44° C | 61% | 1019.2 hPa | 0 mm | - | - | - |
| 1777860840 | 19.44° C | 60% | 1019.1 hPa | 0 mm | - | - | - |
| 1777860537 | 20° C | 58% | 1019.1 hPa | 0 mm | - | - | - |
| 1777860233 | 20° C | 57% | 1019 hPa | 0 mm | - | - | - |
| 1777859929 | 20.56° C | 56% | 1019.3 hPa | 0 mm | - | - | - |
* Rain latest hour (hover to see other rain measurements)
** Current wind speed in m/s (hover to see current wind gust speed)